Satellite: SRMSAT Catalog number: 37841 Epoch time: 12180.40558951 Element set: 174 Inclination: 019.9751 deg RA of node: 295.3847 deg Eccentricity: 0.0012447 Arg of perigee: 312.4492 deg Mean anomaly: 047.4860 deg Mean motion: 14.10146381 rev/day Decay rate: 2.64e-06 rev/day^2 Epoch rev: 3677 Checksum: 299
Satellite: RAX-2 Catalog number: 37853 Epoch time: 12179.73199085 Element set: 0220 Inclination: 101.7121 deg RA of node: 224.7187 deg Eccentricity: 0.0246763 Arg of perigee: 320.8583 deg Mean anomaly: 037.4987 deg Mean motion: 14.80114363 rev/day Decay rate: 1.119e-05 rev/day^2 Epoch rev: 03596 Checksum: 308
Satellite: AUBIESAT Catalog number: 37854 Epoch time: 12179.88673036 Element set: 0224 Inclination: 101.7142 deg RA of node: 225.2069 deg Eccentricity: 0.0246872 Arg of perigee: 319.7424 deg Mean anomaly: 038.5722 deg Mean motion: 14.80506546 rev/day Decay rate: 1.362e-05 rev/day^2 Epoch rev: 03597 Checksum: 307
Satellite: HRBE Catalog number: 37855 Epoch time: 12179.96901766 Element set: 0215 Inclination: 101.7152 deg RA of node: 225.2814 deg Eccentricity: 0.0248014 Arg of perigee: 319.6386 deg Mean anomaly: 038.6636 deg Mean motion: 14.80358982 rev/day Decay rate: 1.497e-05 rev/day^2 Epoch rev: 03598 Checksum: 330
Satellite: RS-39 Catalog number: 38051 Epoch time: 12180.21547743 Element set: 464 Inclination: 051.6436 deg RA of node: 107.2792 deg Eccentricity: 0.0014375 Arg of perigee: 076.5288 deg Mean anomaly: 080.3667 deg Mean motion: 15.24480475 rev/day Decay rate: 3.772e-05 rev/day^2 Epoch rev: 2365 Checksum: 311
Satellite: E-STAR Catalog number: 38079 Epoch time: 12180.33239819 Element set: 313 Inclination: 069.4953 deg RA of node: 290.1947 deg Eccentricity: 0.0743362 Arg of perigee: 233.8864 deg Mean anomaly: 119.1156 deg Mean motion: 14.15272477 rev/day Decay rate: 2.2569e-04 rev/day^2 Epoch rev: 1916 Checksum: 324
Satellite: GOLIAT Catalog number: 38085 Epoch time: 12180.33166949 Element set: 289 Inclination: 069.4927 deg RA of node: 290.4938 deg Eccentricity: 0.0747931 Arg of perigee: 234.1012 deg Mean anomaly: 118.8385 deg Mean motion: 14.14292746 rev/day Decay rate: 2.3281e-04 rev/day^2 Epoch rev: 1915 Checksum: 325
Satellite: HORYU-2 Catalog number: 38340 Epoch time: 12180.87468133 Element set: 44 Inclination: 098.1743 deg RA of node: 120.6293 deg Eccentricity: 0.0012057 Arg of perigee: 297.8543 deg Mean anomaly: 062.1444 deg Mean motion: 14.70003208 rev/day Decay rate: 5.11e-06 rev/day^2 Epoch rev: 619 Checksum: 267
/EX
participants (1)
-
Ray Hoad